Weather in Verkhnyaya Sinyachiha

Russia / Sverdlovsk Oblast     57°58′51″N   61°39′44″E
temp.,
°C
wind,
m/s
gust,
m/s
humid.,
%
clouds,
%
prec.,
mm/h
press.,
hPa
HPBL,
m
28 november, sun
sun2823:00−2wsw51483100 0.0 1022712
02:00−2wsw41385100 0.0 1023595
05:00−3sw41090100 0.0 1023382
08:00−4ssw38935 0.0 1024219
11:00−5sw4117665 0.0 1024354
14:00−4ssw3117276 0.0 1024404
17:00−4ssw41468100 0.0 1022505
20:00−2ssw51480100 0.0 1021598
29 november, mon
mon2923:00−3ssw41471100 0.0 1019555
02:00−2sw41375100 0.0 1018613
05:00−2sw4138581 0.0 1018548
08:00−2sw4128755 0.0 1017501
11:000sw4138682 0.0 1018495
14:00+1sw4138688 0.0 1018621
17:00+1sw41289100 0.0 1018592
20:00+1sw41191100 0.0 1019557
30 november, tue
tue3023:00+1sw31092100 0.0 1018440
02:00+1sw3993100 0.0 1018347
05:00+1ssw3994100 0.0 1018308
08:00+1ssw31095100 0.0 1016328
11:00+2s41293100 0.0 1015376
14:00+2sse41391100 0.0 1012382
17:00+2s51486100 0.0 1009460
20:00+1s51581100 0.1 1007479
1 december, wed
wed123:00+1s61882100 0.8 1003653
02:00+2s61786100 0.9 1001867
05:00+2ssw51489100 0.9 1001835
08:00+2ssw41293100 0.0 1002586
11:00+3ssw41184100 0.0 1003597
14:00+4ssw51183100 0.0 1002782
17:00+3s31093100 0.0 1001359
20:00+1sse3996100 0.1 1000325
2 december, thu
thu223:00+1sse41187100 0.1 998489
02:00+1sse41494100 0.6 995538
05:00+1s5128392 0.8 993718
08:000s4148825 0.0 992478
11:00+2ssw51387100 0.0 993943
14:00+2wsw6118097 0.1 9941038
17:000wsw6127289 0.1 9971105
20:00−2w6127799 0.0 10001027